Tracking 32139 objects as of 19-Nov-2025
HD Live streaming from Space Station
objects crossing your sky now

TELECOM 1A

Track TELECOM 1A now!
TELECOM 1A is classified as:


NORAD ID: 15159
Int'l Code: 1984-081B
Perigee: 36,196.1 km
Apogee: 36,459.5 km
Inclination: 13.0 °
Period: 1,463.5 minutes
Semi major axis: 42698 km
RCS: 10.2909 m2 (large)
Launch date: August 4, 1984
Source: France (FR)
Launch site: FRENCH GUIANA (FRGUI)
Your satellite tracking list
Your tracking list is empty




NASA's NSSDC Master Catalog

Two Line Element Set (TLE):
1 15159U 84081B   25322.23845624 -.00000126  00000-0  00000-0 0  9990
2 15159  12.9922 335.3550 0030844  44.4823 142.8382  0.98396329116539
Source of the keplerian elements: AFSPC